Regional Weather Roundup
Issued by NWS Bismarck, ND

Home | Current Version | Previous Version | Text Only | Print | Product List | Glossary Off
Versions: 1 2 3 4 5 6 7 8 9 10 11 12 13 14 15 16 17 18 19 20 21 22 23 24 25 26 27 28 29 30 31 32 33 34 35 36 37 38 39 40 41 42 43 44 45 46 47 48 49 50

000
ASUS43 KBIS 230110
RWRBIS

NWR BROADCAST TEXT
NATIONAL WEATHER SERVICE BISMARCK ND
800 PM CDT SUN OCT 22 2017

NOTE: "FAIR" INDICATES FEW OR NO CLOUDS BELOW 12,000 FEET WITH NO
SIGNIFICANT WEATHER AND/OR OBSTRUCTIONS TO VISIBILITY.


CITY           SKY/WX    TMP DP  RH WIND       PRES   REMARKS
WILLISTON      PTCLDY    54  41  62 W10       29.62R
MINOT          PTCLDY    57  40  52 SW10      29.56R
MINOT AFB      PTCLDY    48  39  72 SW10      29.54S
BISMARCK       PTCLDY    60  42  51 SW6       29.65S
DICKINSON      PTCLDY    52  40  63 W15       29.69R
GARRISON         N/A     53  40  61 SW12      29.59S
HETTINGER ARPT PTCLDY    51  42  71 SW18      29.77F
JAMESTOWN      CLOUDY    59  31  34 S14       29.67F
CARRINGTON     FAIR      54  36  50 S13       29.65F
LINTON         MOCLDY    59  39  47 S10       29.71F
TIOGA          MOCLDY    55  39  54 W17G24    29.60R
$$

CITY           SKY/WX    TMP DP  RH WIND       PRES   REMARKS
GRAND FORKS    CLOUDY    59  41  51 SW18G30   29.65R
GRAND FORKS AF PTCLDY    59  37  44 W14       29.65S
DEVILS LAKE    CLOUDY    52  43  71 S8        29.63F
FARGO          CLOUDY    60  31  33 S13       29.71S
CANDO          FAIR      48  45  87 S9        29.61F
CAVALIER       FAIR      55  41  58 SW8G17    29.60R
GWINNER        PTCLDY    57  30  35 S10       29.74S
ROLLA          FAIR      41  39  93 SW10      29.56F
WALHALLA       FAIR     N/A N/A N/A W12G17    29.58R
$$

CITY           SKY/WX    TMP DP  RH WIND       PRES   REMARKS
ABERDEEN       CLOUDY    60  31  33 S10       29.76F
MOBRIDGE       CLOUDY    58  38  47 CALM      29.73R
BUFFALO          N/A     50  44  80 NW14      29.76R
RAPID CITY     CLEAR     57  29  34 W3        29.85R
GLASGOW        CLOUDY    53  36  52 W14G22    29.72R
SIDNEY         PTCLDY    54  43  66 W16       29.68R
WOLF POINT     CLEAR     54  36  50 W20G30    29.72R
GLENDIVE       CLOUDY    51  39  63 W15       29.75R
MILES CITY     CLOUDY    58  38  47 NW26G35   29.80R
BAKER          CLOUDY    50  44  80 W15       29.78R
$$

CITY           SKY/WX    TMP DP  RH WIND       PRES   REMARKS
BILLINGS       CLOUDY    55  30  38 NW22G31   29.97R
GREAT FALLS    CLEAR     47  23  38 W22G35    30.02R
REGINA         PTCLDY    46  34  61 NW15      29.55R
ESTEVAN        PTCLDY    50  34  53 W13       29.52R
$$




USA.gov is the U.S. government's official web portal to all federal, state and local government web resources and services.